FW8889 Weather Reports


Display with metric or nautical units.
time (UTC)temp
F
wind
direction
speed
MPH
gust
MPH
rain 1hr
in
rain 24hr
in
rain mn
in
humidity
%
barometer
mb
20260506081547 63 0 1.0 5.0 0.00 0.01 0.00 72 1010.5
20260506073048 64 0 1.0 4.0 0.00 0.01 0.00 70 1010.2
20260506071553 64 0 1.0 5.0 0.00 0.01 0.00 69 1010.1
20260506061552 65 338 1.0 4.0 0.00 0.01 0.00 65 1009.7
20260506044555 65 0 1.0 5.0 0.00 0.01 0.00 63 1010.2
20260506043049 65 260 0.0 5.0 0.00 0.01 0.00 63 1010.2
20260506041550 65 236 1.0 5.0 0.00 0.01 0.00 62 1010.3
20260506040100 65 242 1.0 4.0 0.00 0.01 0.00 61 1010.3
20260506034604 65 0 2.0 9.0 0.00 0.01 0.01 60 1010.4
20260506033050 66 243 2.0 6.0 0.00 0.01 0.01 59 1010.3
20260506031558 66 152 2.0 7.0 0.00 0.01 0.01 59 1010.3
20260506030052 66 204 1.0 9.0 0.00 0.01 0.01 57 1010.3
20260506024556 67 242 2.0 12.0 0.00 0.01 0.01 56 1010.4
20260506023050 67 247 1.0 6.0 0.00 0.01 0.01 56 1010.3
20260506021556 67 200 1.0 9.0 0.00 0.01 0.01 56 1010.6
20260506020100 67 148 0.0 7.0 0.00 0.01 0.01 57 1010.7
20260506014549 67 0 0.0 3.0 0.00 0.01 0.01 57 1010.4
20260506013048 68 0 1.0 6.0 0.00 0.01 0.01 56 1010.0
20260506011551 68 277 1.0 4.0 0.00 0.01 0.01 56 1009.6
20260506010056 68 169 2.0 11.0 0.00 0.01 0.01 54 1009.4
20260506004551 69 0 2.0 4.0 0.00 0.01 0.01 54 1009.1
20260506003049 69 249 2.0 10.0 0.00 0.01 0.01 52 1008.7
20260506001549 70 286 2.0 8.0 0.00 0.01 0.01 52 1008.3
20260506000050 71 5 2.0 6.0 0.00 0.01 0.01 51 1008.2
20260505234557 72 149 3.0 9.0 0.00 0.01 0.01 49 1007.9
20260505233103 73 263 2.0 8.0 0.00 0.01 0.01 49 1007.7
20260505231555 73 157 2.0 10.0 0.00 0.01 0.01 48 1007.5
20260505230054 74 331 3.0 9.0 0.00 0.01 0.01 47 1007.2
20260505224553 75 225 2.0 6.0 0.00 0.01 0.01 46 1007.1
20260505223057 75 85 2.0 10.0 0.00 0.01 0.01 46 1006.8
20260505221552 76 0 3.0 10.0 0.00 0.01 0.01 45 1006.4
20260505220049 77 225 3.0 11.0 0.00 0.01 0.01 43 1006.4
20260505214550 78 173 4.0 11.0 0.00 0.01 0.01 41 1006.2
20260505213049 80 315 2.0 9.0 0.00 0.01 0.01 40 1006.1
20260505211600 80 258 4.0 9.0 0.00 0.01 0.01 39 1006.0
20260505210050 80 212 2.0 9.0 0.00 0.01 0.01 39 1005.8
20260505204549 81 205 5.0 12.0 0.00 0.01 0.01 40 1005.7
20260505203049 81 191 3.0 13.0 0.00 0.01 0.01 38 1005.8
20260505201545 83 281 2.0 12.0 0.00 0.01 0.01 37 1005.8
20260505200049 83 245 3.0 9.0 0.00 0.01 0.01 36 1005.8
20260505194605 83 252 3.0 10.0 0.00 0.01 0.01 37 1005.9
20260505193048 82 167 2.0 11.0 0.00 0.01 0.01 38 1006.2
20260505191544 83 298 3.0 9.0 0.00 0.01 0.01 37 1006.3
20260505190051 83 177 3.0 12.0 0.00 0.01 0.01 38 1006.5
20260505184552 83 184 4.0 13.0 0.00 0.01 0.01 36 1006.8
20260505183056 82 240 3.0 12.0 0.00 0.01 0.01 38 1007.0
20260505181556 82 134 3.0 15.0 0.00 0.01 0.01 37 1007.3
20260505180059 83 152 2.0 11.0 0.00 0.01 0.01 36 1007.5
20260505174602 82 334 2.0 7.0 0.00 0.01 0.01 38 1007.5
20260505173051 81 195 2.0 7.0 0.00 0.01 0.01 37 1007.8
20260505171553 82 204 3.0 9.0 0.00 0.01 0.01 37 1008.1
20260505170054 80 199 2.0 9.0 0.00 0.01 0.01 41 1008.3
20260505164614 79 242 3.0 9.0 0.00 0.01 0.01 39 1008.6
20260505163102 78 297 2.0 9.0 0.00 0.01 0.01 43 1008.9
20260505161550 77 0 2.0 7.0 0.00 0.01 0.01 43 1009.2
20260505153053 73 300 2.0 7.0 0.00 0.01 0.01 50 1009.9
20260505151550 72 136 2.0 8.0 0.00 0.01 0.01 51 1009.8
20260505130108 64 0 1.0 5.0 0.00 0.00 0.00 63 1010.3
20260505124556 63 204 1.0 8.0 0.00 0.00 0.00 62 1010.3
20260505123050 63 209 1.0 5.0 0.00 0.00 0.00 63 1010.4
20260505121552 62 193 2.0 6.0 0.00 0.00 0.00 64 1010.5
20260505120106 61 19 1.0 6.0 0.00 0.00 0.00 66 1010.3
20260505114549 59 306 1.0 6.0 0.00 0.00 0.00 68 1010.3
20260505113053 58 248 1.0 4.0 0.00 0.00 0.00 69 1010.1
20260505111549 57 251 1.0 6.0 0.00 0.00 0.00 70 1010.1
20260505101546 55 218 1.0 5.0 0.00 0.00 0.00 72 1010.2
20260505100049 55 0 0.0 3.0 0.00 0.00 0.00 71 1010.1
20260505094547 55 257 0.0 5.0 0.00 0.00 0.00 71 1010.1
20260505093048 54 0 1.0 5.0 0.00 0.00 0.00 72 1010.2
20260505091546 54 253 0.0 7.0 0.00 0.00 0.00 72 1010.1
20260505090048 54 0 0.0 3.0 0.00 0.00 0.00 71 1010.3
20260505084548 54 0 0.0 4.0 0.00 0.00 0.00 70 1010.3
20260505083050 55 236 0.0 3.0 0.00 0.00 0.00 69 1010.3